Wind_Speed
61 56 51 49 48 46 46 49 47 47 46 43 43 43 46 43 40 39 44 46 43 41 39 39 39 41 40 39 37 29 34 29 30 31 35 42 47 48 49 43 38 38 51 53 60 64 65 66 62
65 62 56 54 50 51 51 51 54 51 48 48 49 48 47 44 42 39 49 48 47 48 46 44 41 41 49 43 38 29 33 29 35 36 38 40 45 46 50 41 37 49 54 55 62 62 66 67 71
67 65 60 55 53 57 58 57 56 53 52 48 49 53 52 45 42 45 50 47 47 46 39 40 40 40 32 28 28 29 33 39 41 43 44 46 40 46 48 39 48 51 57 59 64 69 72 73 73
71 64 63 58 57 63 63 61 58 57 55 54 57 57 54 52 48 49 54 50 51 50 49 42 41 40 37 34 32 33 38 43 41 42 47 52 49 51 50 53 56 59 59 59 67 72 74 76 77
71 73 65 64 66 67 72 66 63 60 56 50 57 59 58 53 52 53 54 51 53 53 51 51 49 42 39 38 42 39 37 36 45 49 49 47 51 54 54 53 58 59 59 64 69 74 78 78 77
77 72 71 65 70 72 76 73 63 62 59 55 60 68 61 58 56 55 56 53 54 55 57 56 51 51 49 48 45 42 43 45 47 48 48 54 57 56 57 59 60 61 61 67 72 78 79 82 83
81 80 80 77 74 80 81 77 71 64 65 62 62 69 68 64 65 58 60 58 57 57 51 55 57 54 51 47 43 46 51 54 51 53 57 58 58 59 58 61 61 63 64 70 73 79 84 85 86
90 87 78 67 75 73 82 76 79 74 71 70 71 74 76 64 66 66 64 60 58 56 50 56 58 57 55 51 50 50 46 51 56 62 60 65 63 62 61 62 60 63 66 69 74 79 84 86 85
85 84 82 85 78 81 85 82 85 83 75 74 75 71 72 62 70 67 70 57 63 58 56 59 63 62 60 58 54 46 53 54 61 63 63 69 63 59 62 60 62 65 68 70 75 80 85 88 84
85 80 81 93 91 83 88 88 88 88 85 76 79 73 76 70 67 60 68 59 64 65 61 56 58 64 60 58 57 57 57 61 62 67 69 70 62 60 63 63 64 65 71 75 79 83 89 88 84
101 91 86 92 101 103 100 91 93 90 85 81 82 76 74 69 67 70 68 64 62 65 58 60 58 59 60 55 57 60 62 66 63 68 69 70 61 61 65 58 64 73 75 79 83 86 90 86 85
97 85 93 90 95 101 93 89 88 93 86 83 86 85 85 81 77 73 71 64 62 57 59 64 66 59 63 63 62 66 69 61 67 69 70 73 65 64 58 63 72 76 79 82 85 87 83 84 84
103 105 99 90 86 78 80 78 81 90 82 84 94 92 86 85 79 74 75 77 81 70 68 70 74 77 76 72 70 55 56 63 67 70 69 73 64 62 64 74 76 78 82 85 85 88 83 88 81
100 106 111 113 109 105 103 92 90 72 77 81 89 91 93 90 83 85 86 87 92 87 80 81 75 77 77 72 66 61 70 71 69 70 72 67 65 66 72 75 71 77 80 85 89 85 84 85 77
106 98 97 103 95 103 106 108 95 92 97 91 91 89 89 93 86 89 93 96 94 83 84 76 79 75 73 73 71 71 75 73 68 68 66 67 65 68 69 71 77 76 80 85 80 82 84 81 74
126 118 109 105 106 103 111 118 106 96 102 103 103 106 108 107 103 103 101 97 85 80 75 76 72 70 73 76 80 78 72 64 67 60 60 56 64 64 70 75 77 83 85 83 78 79 84 76 70
130 130 125 126 125 122 126 109 97 97 93 107 105 102 108 113 109 102 96 96 89 81 80 78 76 72 70 76 78 77 75 64 58 57 55 59 62 70 76 78 81 85 85 77 75 79 79 71 66
121 123 131 130 135 135 136 121 115 113 104 95 94 92 98 98 93 88 85 90 91 92 90 82 75 77 77 73 71 61 59 61 67 66 63 60 72 76 78 74 79 79 79 75 81 81 75 68 63
113 116 116 121 127 138 141 137 127 123 122 120 111 101 94 90 87 85 77 82 86 86 91 95 92 85 70 65 60 54 57 56 61 61 64 71 73 74 73 73 75 76 74 79 78 77 70 66 63
110 113 115 118 120 121 127 132 129 127 129 130 123 122 116 107 104 97 92 81 75 78 83 90 88 79 78 71 59 64 59 63 72 71 70 71 74 73 71 72 72 72 77 79 76 70 67 64 60
109 111 113 117 121 121 125 125 120 120 121 123 126 127 128 124 120 119 118 108 90 77 75 75 81 81 83 87 80 82 78 83 80 75 69 71 75 69 65 68 70 72 80 75 70 65 64 62 55
103 113 116 118 120 121 126 118 120 115 114 116 117 122 124 130 131 127 127 123 114 113 106 97 93 93 85 84 85 80 73 73 75 71 68 68 65 62 65 67 71 75 76 70 65 63 60 57 54
95 108 113 119 122 122 121 124 114 117 114 114 116 117 117 117 119 119 124 126 126 117 107 103 101 93 80 78 77 77 75 74 77 74 68 64 61 64 70 70 71 75 68 65 62 60 59 53 53
92 99 104 111 117 121 117 126 117 118 115 115 115 116 115 113 115 116 114 115 115 110 106 106 104 92 87 83 79 74 72 74 75 71 70 64 63 66 65 68 72 66 63 60 59 58 56 53 51
92 98 99 104 107 108 111 122 112 111 115 115 115 114 116 116 119 115 110 108 111 101 94 91 87 81 86 88 86 82 79 78 75 70 68 66 66 65 66 68 65 62 58 57 56 54 51 52 52
90 90 90 95 96 99 104 109 101 103 107 112 114 114 118 120 119 114 111 106 101 99 91 87 84 79 80 83 83 84 82 77 70 66 63 62 63 65 64 61 60 56 55 53 52 50 51 51 49
82 80 82 83 84 88 90 94 88 93 99 98 103 108 114 120 117 117 114 104 99 96 90 85 79 80 77 74 74 74 68 62 60 60 60 58 61 60 57 57 55 53 50 52 50 49 50 50 43
62 69 72 72 71 74 79 82 77 74 73 83 89 95 103 113 109 109 104 98 99 96 94 82 79 79 69 67 65 64 61 54 54 55 54 56 55 53 53 52 50 48 49 49 48 49 49 43 37
52 56 57 59 61 65 69 68 64 62 60 72 78 87 96 100 99 103 94 83 84 92 90 90 82 76 70 70 66 62 59 52 49 47 51 51 48 50 49 47 45 46 46 46 47 48 41 35 24
43 44 42 43 48 52 52 56 51 54 55 61 71 78 80 84 89 87 85 79 81 77 81 83 79 72 67 66 62 59 56 52 45 45 46 45 46 45 44 43 42 44 43 43 46 43 34 23 10
Wind_Direction
248 249 249 244 242 243 248 246 254 255 254 259 264 264 263 270 275 268 265 270 270 272 268 264 267 261 272 284 294 296 283 286 290 296 303 306 311 311 315 311 311 307 309 320 322 325 328 327 321
247 250 249 246 247 247 245 247 251 254 257 265 259 261 264 267 273 271 269 271 275 276 276 272 268 280 287 294 290 286 291 291 293 302 307 309 316 315 319 308 305 307 311 315 324 327 328 328 322
248 250 249 246 249 245 243 248 248 252 260 262 261 262 265 269 270 268 268 272 276 278 281 281 278 285 285 295 295 293 289 292 291 293 293 311 316 318 323 305 307 308 310 315 322 325 324 324 320
245 244 250 246 245 240 243 249 252 256 259 263 262 265 263 265 269 267 270 272 274 275 278 282 281 276 284 284 280 287 292 292 293 298 298 308 310 317 323 312 306 306 306 311 314 324 325 321 320
245 243 247 246 243 240 247 252 251 255 256 257 255 262 264 268 267 269 271 272 274 276 278 282 283 281 280 281 281 286 289 286 299 302 304 309 307 307 312 311 312 307 301 306 319 325 323 321 322
238 236 242 242 243 247 249 252 250 251 251 252 253 256 258 263 267 265 270 277 271 272 274 280 282 284 286 291 294 288 286 286 305 303 302 306 307 308 311 309 307 304 301 310 320 322 322 321 322
233 234 238 244 246 252 246 249 248 243 249 251 250 256 256 263 268 265 270 269 269 271 274 279 280 281 282 284 283 284 287 289 298 305 308 310 313 312 313 310 306 300 300 312 320 321 319 322 322
235 233 236 240 247 245 243 244 248 249 251 256 257 254 258 260 265 267 266 265 263 265 273 276 277 282 284 285 284 286 292 297 301 304 307 311 310 312 311 309 301 299 309 317 320 321 319 321 321
232 238 235 240 237 238 235 242 247 249 253 254 254 252 257 260 261 259 266 267 268 264 275 285 280 277 279 286 287 284 292 297 303 304 306 312 311 311 312 303 299 301 314 320 323 321 318 321 321
232 231 235 235 233 230 236 245 250 251 248 251 249 249 251 250 252 252 261 257 262 267 272 273 280 279 279 279 285 284 290 294 300 302 306 311 310 309 308 299 301 310 317 319 322 322 318 320 319
233 239 240 240 236 238 243 247 248 249 250 249 246 249 248 249 247 257 257 256 256 256 267 274 280 282 279 280 282 286 289 292 298 299 304 310 309 308 303 301 312 316 318 320 321 320 319 319 320
234 233 238 242 240 239 240 245 249 250 246 247 246 254 252 254 256 258 254 257 251 248 270 281 278 272 274 280 284 286 286 289 293 298 302 305 308 303 297 308 313 316 318 318 318 319 319 319 320
234 236 234 233 236 234 239 241 243 241 245 247 247 251 252 247 249 249 255 256 264 255 258 267 278 280 277 282 287 280 286 294 295 300 301 305 302 295 294 304 309 314 315 317 318 318 318 318 319
234 236 237 238 239 242 244 246 243 240 242 245 248 249 249 250 250 254 260 263 270 267 263 258 267 274 279 282 284 279 289 296 299 300 299 300 296 290 296 302 306 311 316 316 316 316 318 320 319
229 229 230 234 239 247 248 243 246 247 247 244 251 250 251 251 251 257 261 264 269 267 270 263 265 271 274 277 276 281 288 295 296 300 299 291 288 291 297 303 309 314 312 315 314 316 318 320 318
237 234 230 234 234 236 244 243 248 248 249 248 251 255 252 255 253 261 260 263 263 263 265 266 266 267 274 278 281 280 287 289 295 293 290 290 289 291 298 307 311 311 312 311 313 316 317 317 316
237 238 235 238 239 239 244 238 240 245 246 255 258 260 261 260 261 262 261 258 261 262 265 266 266 267 270 274 277 280 284 287 287 288 287 283 288 292 300 305 308 309 310 309 311 316 316 315 315
239 239 240 237 244 244 247 244 244 244 242 244 246 251 254 257 256 257 258 255 256 259 262 261 264 267 271 276 278 278 279 282 282 285 284 278 291 298 301 307 307 308 308 310 312 315 314 314 314
242 242 241 242 244 245 246 245 244 244 246 247 244 243 243 249 252 256 256 258 258 259 262 258 265 271 271 268 273 268 275 275 277 276 277 288 295 300 303 305 305 306 308 309 312 314 313 314 314
243 243 243 242 244 245 247 246 245 246 247 247 246 245 244 243 247 249 253 254 252 255 261 264 266 270 266 262 259 266 273 278 282 287 292 295 295 296 300 301 303 304 307 310 311 312 314 313 315
246 246 245 244 245 246 247 245 246 245 246 247 249 249 247 246 247 252 255 254 249 248 250 255 260 265 264 266 265 267 267 273 279 283 288 291 292 295 297 300 303 304 307 309 309 311 312 312 315
248 248 246 247 247 246 247 246 247 246 246 246 246 249 249 251 250 250 253 253 253 256 255 256 258 265 262 264 267 270 271 272 275 281 287 289 291 292 294 299 301 304 306 306 308 310 310 312 315
249 249 249 248 248 247 249 248 242 245 243 245 246 246 247 249 250 251 250 252 253 254 251 256 260 264 260 266 272 271 272 273 277 283 285 286 286 289 293 298 300 303 303 305 308 307 309 311 314
254 253 251 250 250 250 249 251 245 246 247 245 243 245 246 247 248 248 249 251 252 254 254 254 257 256 258 264 267 270 271 274 279 282 283 282 288 293 293 296 300 300 302 305 306 306 309 312 314
257 254 254 255 255 252 251 252 252 247 248 248 246 246 246 245 246 246 247 248 252 253 255 256 255 255 255 259 264 268 270 274 277 278 277 279 286 290 293 296 296 299 301 303 303 306 308 312 311
261 261 261 258 258 258 256 255 252 247 246 245 243 244 244 244 245 247 247 248 250 253 253 254 255 255 257 256 259 264 267 271 272 272 276 280 282 287 293 292 294 299 300 299 303 305 309 311 308
265 266 263 263 260 258 258 258 252 248 243 244 242 242 245 246 243 241 242 244 247 251 251 249 251 254 253 255 258 261 264 268 268 270 274 279 282 288 288 289 295 298 297 300 304 305 308 308 304
265 261 259 257 257 257 254 254 253 249 243 240 239 239 239 243 246 247 245 241 243 244 248 250 248 250 253 256 256 258 264 267 268 269 273 276 282 283 285 289 293 294 296 301 305 307 309 304 304
260 257 254 256 254 251 253 253 250 248 237 233 234 234 235 238 240 243 243 241 239 242 245 246 247 249 250 252 254 257 261 265 266 270 270 274 278 282 285 289 291 294 298 303 308 309 307 303 299
263 258 257 258 257 256 254 258 251 245 238 229 228 230 233 236 239 243 240 236 235 236 238 241 243 246 248 251 254 256 257 259 263 263 268 272 276 282 284 288 290 295 299 306 309 308 307 300 268
Height
10913 10920 10928 10935 10941 10940 10939 10939 10940 10943 10945 10949 10952 10953 10952 10957 10962 10971 10963 10963 10966 10968 10970 10971 10973 10972 10971 10972 10971 10966 10966 10964 10964 10962 10960 10958 10956 10953 10951 10947 10944 10940 10936 10932 10927 10922 10918 10913 10909
10902 10910 10920 10928 10932 10932 10927 10931 10931 10934 10938 10944 10945 10945 10947 10954 10958 10963 10953 10958 10960 10962 10964 10966 10968 10971 10968 10967 10963 10962 10962 10960 10960 10958 10957 10954 10951 10948 10945 10941 10938 10934 10929 10925 10921 10916 10908 10903 10898
10894 10902 10910 10919 10922 10917 10915 10920 10923 10927 10933 10937 10937 10934 10940 10952 10955 10954 10944 10952 10953 10954 10956 10958 10960 10963 10960 10961 10959 10958 10958 10957 10955 10953 10951 10949 10946 10943 10939 10934 10931 10927 10922 10917 10913 10906 10900 10895 10891
10883 10892 10900 10910 10911 10907 10901 10910 10915 10920 10926 10929 10926 10926 10933 10944 10948 10945 10941 10948 10947 10949 10950 10951 10954 10955 10955 10954 10953 10953 10953 10951 10950 10947 10945 10943 10940 10936 10933 10928 10924 10919 10915 10910 10904 10896 10890 10885 10880
10871 10880 10890 10898 10900 10896 10892 10900 10902 10912 10916 10923 10917 10915 10921 10933 10939 10936 10935 10941 10941 10942 10943 10945 10947 10948 10949 10949 10949 10947 10947 10946 10944 10941 10937 10935 10933 10930 10927 10922 10917 10912 10906 10900 10894 10887 10880 10874 10867
10859 10868 10877 10885 10886 10887 10884 10886 10898 10902 10907 10913 10911 10904 10912 10921 10929 10929 10928 10935 10934 10934 10937 10937 10938 10940 10942 10942 10942 10941 10940 10938 10936 10933 10931 10929 10926 10922 10919 10914 10910 10904 10897 10893 10885 10877 10870 10864 10856
10846 10852 10863 10873 10877 10879 10870 10872 10885 10891 10897 10903 10904 10895 10901 10914 10916 10923 10921 10925 10926 10924 10928 10928 10929 10931 10934 10935 10934 10934 10932 10931 10928 10926 10923 10921 10917 10913 10909 10905 10900 10894 10888 10884 10875 10866 10861 10853 10844
10830 10840 10852 10861 10865 10864 10857 10860 10869 10881 10886 10894 10891 10888 10888 10911 10908 10909 10913 10917 10916 10916 10920 10918 10920 10922 10924 10926 10926 10925 10923 10923 10921 10918 10914 10912 10909 10905 10901 10896 10891 10885 10880 10874 10865 10857 10851 10842 10834
10812 10834 10844 10845 10849 10845 10840 10843 10854 10865 10873 10878 10874 10882 10881 10898 10900 10898 10899 10912 10906 10906 10913 10912 10911 10912 10915 10918 10918 10915 10915 10913 10911 10907 10905 10903 10901 10897 10892 10887 10884 10879 10871 10863 10855 10849 10840 10831 10822
10804 10819 10827 10823 10828 10828 10826 10830 10838 10846 10859 10865 10862 10869 10872 10884 10885 10888 10890 10902 10902 10895 10902 10903 10902 10903 10908 10908 10909 10907 10906 10904 10901 10898 10896 10896 10893 10889 10885 10879 10874 10869 10861 10854 10847 10839 10829 10820 10811
10793 10811 10803 10807 10809 10812 10817 10825 10822 10836 10846 10851 10851 10854 10858 10866 10874 10877 10881 10885 10894 10890 10890 10891 10893 10894 10898 10897 10900 10900 10898 10896 10892 10890 10888 10887 10885 10881 10877 10870 10863 10857 10851 10844 10837 10829 10818 10809 10800
10778 10789 10791 10792 10792 10798 10808 10808 10816 10819 10833 10835 10840 10843 10847 10856 10863 10871 10874 10869 10878 10888 10887 10880 10880 10884 10886 10887 10890 10892 10891 10888 10885 10881 10880 10878 10877 10875 10870 10861 10853 10845 10840 10835 10829 10819 10809 10798 10789
10763 10766 10776 10777 10779 10787 10786 10797 10799 10808 10817 10819 10821 10825 10829 10839 10850 10853 10858 10856 10854 10877 10888 10879 10872 10864 10874 10880 10880 10878 10879 10878 10876 10872 10871 10868 10866 10865 10861 10855 10847 10837 10831 10824 10819 10809 10799 10788 10777
10734 10745 10756 10762 10765 10772 10770 10776 10772 10801 10801 10805 10803 10808 10814 10819 10837 10839 10845 10844 10842 10850 10869 10872 10871 10864 10866 10866 10870 10867 10868 10868 10865 10863 10861 10858 10856 10852 10848 10844 10841 10834 10822 10814 10806 10800 10789 10776 10766
10713 10729 10740 10747 10750 10751 10733 10749 10769 10776 10779 10790 10783 10792 10798 10805 10821 10829 10830 10834 10833 10843 10839 10858 10859 10858 10857 10857 10864 10865 10863 10859 10857 10855 10852 10847 10845 10843 10837 10833 10828 10825 10817 10808 10797 10789 10781 10768 10757
10693 10705 10719 10724 10727 10730 10698 10748 10756 10753 10758 10770 10774 10771 10781 10786 10803 10811 10818 10823 10822 10826 10832 10835 10844 10850 10849 10845 10847 10854 10858 10854 10851 10850 10848 10840 10835 10832 10829 10823 10817 10810 10808 10802 10792 10781 10771 10762 10752
10670 10685 10692 10700 10694 10691 10674 10729 10740 10739 10741 10753 10759 10761 10763 10770 10784 10794 10802 10806 10811 10812 10817 10821 10831 10839 10841 10837 10838 10838 10844 10842 10840 10839 10839 10840 10831 10825 10822 10817 10810 10802 10794 10788 10784 10777 10766 10753 10746
10650 10664 10671 10685 10664 10661 10666 10706 10731 10726 10727 10740 10744 10746 10750 10754 10766 10776 10786 10793 10795 10798 10806 10810 10812 10823 10826 10825 10825 10827 10828 10830 10830 10828 10826 10826 10820 10815 10811 10804 10800 10794 10785 10776 10768 10761 10754 10747 10738
10630 10639 10649 10652 10644 10639 10652 10675 10704 10701 10702 10715 10726 10735 10740 10738 10745 10753 10764 10771 10782 10788 10791 10799 10800 10806 10809 10811 10814 10813 10816 10817 10816 10814 10815 10812 10810 10804 10799 10796 10788 10784 10776 10768 10758 10750 10740 10732 10725
10602 10610 10620 10624 10617 10620 10622 10644 10673 10681 10688 10691 10702 10707 10717 10725 10729 10737 10745 10752 10760 10768 10777 10787 10794 10794 10792 10798 10803 10808 10810 10810 10804 10803 10804 10800 10797 10797 10790 10782 10780 10772 10764 10756 10747 10739 10731 10723 10715
10579 10583 10589 10591 10585 10599 10599 10619 10646 10660 10665 10669 10676 10685 10688 10701 10715 10718 10723 10734 10742 10754 10764 10773 10781 10788 10779 10778 10790 10796 10803 10800 10795 10796 10797 10791 10786 10787 10780 10774 10768 10760 10753 10744 10737 10730 10723 10715 10708
10560 10550 10560 10563 10566 10577 10567 10608 10613 10634 10643 10647 10658 10660 10668 10678 10690 10701 10702 10708 10718 10732 10749 10762 10767 10773 10767 10768 10773 10784 10786 10785 10781 10788 10791 10781 10777 10774 10769 10765 10757 10750 10742 10734 10727 10720 10714 10706 10698
10534 10520 10529 10536 10536 10549 10558 10561 10601 10594 10616 10622 10631 10635 10644 10654 10658 10669 10679 10685 10696 10716 10733 10743 10753 10760 10758 10758 10763 10765 10771 10772 10770 10776 10777 10770 10768 10764 10759 10753 10747 10740 10732 10724 10717 10711 10705 10699 10691
10501 10499 10504 10503 10509 10521 10539 10515 10565 10573 10587 10594 10604 10610 10619 10629 10630 10640 10654 10662 10676 10694 10713 10728 10735 10746 10748 10746 10745 10751 10756 10757 10759 10762 10760 10758 10756 10752 10747 10742 10736 10730 10724 10715 10707 10702 10694 10688 10682
10471 10471 10479 10478 10482 10495 10501 10480 10531 10554 10556 10567 10578 10591 10591 10598 10595 10614 10630 10645 10652 10678 10695 10708 10719 10730 10735 10734 10734 10737 10743 10747 10749 10749 10748 10746 10744 10741 10735 10731 10724 10719 10713 10707 10700 10692 10687 10680 10674
10447 10449 10454 10451 10458 10464 10465 10463 10500 10511 10523 10526 10536 10547 10551 10559 10572 10593 10610 10627 10645 10658 10677 10688 10698 10710 10715 10719 10723 10723 10730 10734 10738 10736 10736 10736 10733 10728 10725 10719 10714 10710 10703 10697 10692 10684 10678 10673 10666
10427 10426 10423 10426 10433 10430 10436 10434 10457 10465 10478 10501 10514 10524 10526 10527 10543 10557 10582 10615 10631 10640 10652 10667 10682 10688 10695 10701 10709 10712 10716 10722 10726 10725 10724 10724 10720 10717 10714 10709 10703 10700 10694 10687 10682 10676 10670 10664 10657
10408 10398 10394 10394 10402 10404 10406 10409 10420 10435 10462 10470 10483 10499 10504 10500 10527 10543 10573 10601 10612 10620 10629 10655 10662 10666 10684 10691 10696 10699 10704 10712 10714 10713 10713 10710 10709 10707 10703 10699 10695 10690 10685 10679 10674 10667 10661 10655 10649
10379 10374 10376 10377 10378 10379 10381 10388 10399 10411 10429 10435 10453 10463 10470 10485 10502 10513 10547 10581 10597 10602 10623 10626 10644 10656 10671 10676 10681 10688 10694 10700 10702 10703 10699 10699 10698 10696 10693 10689 10686 10681 10676 10671 10665 10659 10653 10646 10641
10359 10359 10364 10364 10362 10363 10370 10374 10386 10392 10401 10415 10424 10436 10456 10474 10488 10516 10530 10557 10572 10587 10598 10613 10629 10646 10657 10662 10671 10676 10681 10686 10692 10691 10689 10688 10689 10686 10682 10680 10677 10672 10669 10664 10657 10650 10645 10639 10636